Miscellaneous Local Product
Issued by NWS North Platte, NE

Home | Current Version | Previous Version | Text Only | Print | Product List | Glossary On
Versions: 1 2 3 4 5 6 7 8 9 10 11 12 13 14 15 16 17 18 19 20 21 22 23 24 25 26 27 28 29 30 31 32 33 34 35 36 37 38 39 40 41 42 43 44 45 46 47 48 49 50
959
AXUS43 KLBF 182310
MISLBF


WESTERN AND NORTH CENTRAL NEBRASKA HOURLY WEATHER ROUNDUP
NATIONAL WEATHER SERVICE NORTH PLATTE NE
500 PM CST SAT FEB 18 2017

NOTE: "FAIR" INDICATES FEW OR NO CLOUDS BELOW 12,000 FEET WITH NO
SIGNIFICANT WEATHER AND/OR OBSTRUCTIONS TO VISIBILITY.

NOTE: STATIONS NOT REPORTING VARIABLES SUCH AS SKY/WEATHER OR
PRESSURE ARE PROVIDED BY RAWS AND APRS NETWORKS AND ARE NOT UNDER
NATIONAL WEATHER SERVICE QUALITY CONTROL.

...OBSERVATIONS IN AND NEAR THE EASTERN PANHANDLE OF NEBRASKA...

CITY           SKY/WX    TMP DP  RH WIND       PRES   REMARKS
PINE RIDGE     SUNNY     57  31  37 S13       29.63F
CHADRON        SUNNY     67  29  24 S10       29.61S
ALLIANCE       SUNNY     63  25  23 S18       29.66S
SIDNEY         CLOUDY    63  25  23 S16       29.69S
CRESCENT LAKE    N/A     58  28  32 S8          N/A
$$

...OBSERVATIONS IN NORTHERN NEBRASKA AND FAR SOUTHERN SOUTH DAKOTA...

CITY           SKY/WX    TMP DP  RH WIND       PRES   REMARKS
WINNER         FAIR      63  30  28 S15       29.69S
VALENTINE      SUNNY     62  26  25 S9        29.69F
THEDFORD       MOSUNNY   62  32  31 S12       29.73S
AINSWORTH      SUNNY     60  29  32 S12       29.72S
O`NEILL        SUNNY     61  29  30 S9        29.77R
ORD            CLOUDY    61  26  26 S8        29.75R
BROKEN BOW     CLOUDY    60  32  34 S8        29.75R
VALENTINE NWR    N/A     63  25  23 S14G21      N/A
HALSEY           N/A     62  25  24 S8G16       N/A
CHAMBERS         N/A     58  31  36 SE6         N/A
EWING            N/A     60  40  47 S3          N/A
$$

...OBSERVATIONS IN SOUTHWEST NEBRASKA AND FAR NORTHEAST COLORADO...

CITY           SKY/WX    TMP DP  RH WIND       PRES   REMARKS
HOLYOKE        FAIR      63  28  27 S14       29.71R
IMPERIAL       SUNNY     62  28  27 S14       29.71F
OGALLALA       CLOUDY    62  30  29 SE9       29.71S
NORTH PLATTE   MOSUNNY   62  30  29 S9        29.73F
MCCOOK         CLOUDY    65  35  33 SE8       29.73S
LEXINGTON      MOSUNNY   63  32  31 S10       29.75R
STAPLETON        N/A     62  33  34 CALM        N/A
GOTHENBURG       N/A     63  31  29 SE5         N/A
CALLAWAY         N/A     60  35  39 S12         N/A
$$

...OBSERVATIONS IN CENTRAL LINCOLN COUNTY AREA...

CITY           SKY/WX    TMP DP  RH WIND       PRES   REMARKS
N.P. AIRPORT   MOSUNNY   62  30  29 S9        29.73F
N.P. DOWNTOWN    N/A     61  34  36 SE3         N/A
N.P. SOUTHEAST   N/A     61  33  35 S5          N/A
N.P. HILLCREST   N/A     61  34  36 S6          N/A
$$

...SOME OBSERVATIONS FROM AROUND THE REGION...

CITY           SKY/WX    TMP DP  RH WIND       PRES   REMARKS
LARAMIE        CLOUDY    51  22  31 W8        29.69F
CHEYENNE       CLOUDY    57  20  23 S12       29.68F
DENVER         CLOUDY    65  22  19 S23       29.62F
AKRON          CLOUDY    63  19  18 S23G29    29.69S
SCOTTSBLUFF    SUNNY     63  23  21 SE12      29.65S
RAPID CITY     SUNNY     67  30  25 W12       29.57F
BISMARCK       PTSUNNY   39  33  79 E10       29.69R WCI  32
PIERRE         CLOUDY    60  34  37 SE14      29.64S
SIOUX FALLS    PTCLDY    57  44  62 S7        29.78R
OMAHA          PTSUNNY   65  32  29 E6        29.77S
GRAND ISLAND   SUNNY     63  30  28 SE12      29.76R
KANSAS CITY    MOSUNNY   71  41  33 CALM      29.77S
WICHITA        MOSUNNY   71  42  35 S13       29.76R
OKLAHOMA CITY  PTSUNNY   67  50  54 SE12      29.78S
DALLAS         PTSUNNY   81  48  31 S10       29.72S
AMARILLO       SUNNY     67  33  28 SE16      29.76R
DODGE CITY     MOSUNNY   67  33  28 S12       29.75R
HAYS           MOSUNNY   70  34  26 S15       29.72R
GOODLAND       SUNNY     64  27  24 S14       29.73S
$$




USA.gov is the U.S. government's official web portal to all federal, state and local government web resources and services.